#datetime,building,power
2023-12-16T00:00:00,mfh,25.31
2023-12-16T00:01:00,mfh,25.16
2023-12-16T00:02:00,mfh,25.13
2023-12-16T00:03:00,mfh,26.72
2023-12-16T00:04:00,mfh,25.95
2023-12-16T00:05:00,mfh,25.76
2023-12-16T00:06:00,mfh,25.88
2023-12-16T00:07:00,mfh,26.02
2023-12-16T00:08:00,mfh,25.99
2023-12-16T00:09:00,mfh,25.40
2023-12-16T00:10:00,mfh,25.30
2023-12-16T00:11:00,mfh,25.24
2023-12-16T00:12:00,mfh,26.39
2023-12-16T00:13:00,mfh,26.18
2023-12-16T00:14:00,mfh,26.05
2023-12-16T00:15:00,mfh,25.90
2023-12-16T00:16:00,mfh,26.02
2023-12-16T00:17:00,mfh,25.85
2023-12-16T00:18:00,mfh,25.55
2023-12-16T00:19:00,mfh,25.23
2023-12-16T00:20:00,mfh,25.25
2023-12-16T00:21:00,mfh,24.10
2023-12-16T00:22:00,mfh,24.16
2023-12-16T00:23:00,mfh,24.19
2023-12-16T00:24:00,mfh,24.14
2023-12-16T00:25:00,mfh,24.12
2023-12-16T00:26:00,mfh,24.06
2023-12-16T00:27:00,mfh,24.43
2023-12-16T00:28:00,mfh,23.82
2023-12-16T00:29:00,mfh,23.34
2023-12-16T00:30:00,mfh,24.02
2023-12-16T00:31:00,mfh,24.09
2023-12-16T00:32:00,mfh,24.54
2023-12-16T00:33:00,mfh,24.21
2023-12-16T00:34:00,mfh,24.66
2023-12-16T00:35:00,mfh,24.12
2023-12-16T00:36:00,mfh,23.44
2023-12-16T00:37:00,mfh,23.70
2023-12-16T00:38:00,mfh,23.51
2023-12-16T00:39:00,mfh,25.28
2023-12-16T00:40:00,mfh,24.27
2023-12-16T00:41:00,mfh,24.26
2023-12-16T00:42:00,mfh,24.18
2023-12-16T00:43:00,mfh,24.33
2023-12-16T00:44:00,mfh,25.00
2023-12-16T00:45:00,mfh,24.21
2023-12-16T00:46:00,mfh,24.25
2023-12-16T00:47:00,mfh,23.40
2023-12-16T00:48:00,mfh,23.34
2023-12-16T00:49:00,mfh,24.60
2023-12-16T00:50:00,mfh,24.65
2023-12-16T00:51:00,mfh,23.41
2023-12-16T00:52:00,mfh,24.04
2023-12-16T00:53:00,mfh,23.21
2023-12-16T00:54:00,mfh,23.75
2023-12-16T00:55:00,mfh,23.66
2023-12-16T00:56:00,mfh,23.68
2023-12-16T00:57:00,mfh,23.66
2023-12-16T00:58:00,mfh,23.68
2023-12-16T00:59:00,mfh,23.83
2023-12-16T01:00:00,mfh,25.03
2023-12-16T01:01:00,mfh,24.60
2023-12-16T01:02:00,mfh,24.66
2023-12-16T01:03:00,mfh,25.53
2023-12-16T01:04:00,mfh,25.45
2023-12-16T01:05:00,mfh,25.26
2023-12-16T01:06:00,mfh,25.21
2023-12-16T01:07:00,mfh,24.35
2023-12-16T01:08:00,mfh,24.47
2023-12-16T01:09:00,mfh,23.99
2023-12-16T01:10:00,mfh,24.16
2023-12-16T01:11:00,mfh,23.78
2023-12-16T01:12:00,mfh,23.56
2023-12-16T01:13:00,mfh,24.63
2023-12-16T01:14:00,mfh,23.76
2023-12-16T01:15:00,mfh,24.47
2023-12-16T01:16:00,mfh,23.94
2023-12-16T01:17:00,mfh,24.31
2023-12-16T01:18:00,mfh,23.53
2023-12-16T01:19:00,mfh,23.29
2023-12-16T01:20:00,mfh,22.82
2023-12-16T01:21:00,mfh,23.40
2023-12-16T01:22:00,mfh,25.43
2023-12-16T01:23:00,mfh,25.47
2023-12-16T01:24:00,mfh,25.41
2023-12-16T01:25:00,mfh,25.45
2023-12-16T01:26:00,mfh,25.54
2023-12-16T01:27:00,mfh,25.00
2023-12-16T01:28:00,mfh,25.14
2023-12-16T01:29:00,mfh,24.91
2023-12-16T01:30:00,mfh,24.98
2023-12-16T01:31:00,mfh,25.57
2023-12-16T01:32:00,mfh,25.75
2023-12-16T01:33:00,mfh,25.73
2023-12-16T01:34:00,mfh,25.68
2023-12-16T01:35:00,mfh,26.64
2023-12-16T01:36:00,mfh,25.05
2023-12-16T01:37:00,mfh,25.12
2023-12-16T01:38:00,mfh,25.15
2023-12-16T01:39:00,mfh,25.53
2023-12-16T01:40:00,mfh,26.11
2023-12-16T01:41:00,mfh,25.90
2023-12-16T01:42:00,mfh,25.88
2023-12-16T01:43:00,mfh,25.83
2023-12-16T01:44:00,mfh,26.65
2023-12-16T01:45:00,mfh,25.57
2023-12-16T01:46:00,mfh,25.26
2023-12-16T01:47:00,mfh,24.95
2023-12-16T01:48:00,mfh,24.84
2023-12-16T01:49:00,mfh,25.99
2023-12-16T01:50:00,mfh,25.45
2023-12-16T01:51:00,mfh,26.66
2023-12-16T01:52:00,mfh,25.89
2023-12-16T01:53:00,mfh,25.47
2023-12-16T01:54:00,mfh,25.56
2023-12-16T01:55:00,mfh,26.28
2023-12-16T01:56:00,mfh,25.47
2023-12-16T01:57:00,mfh,24.71
2023-12-16T01:58:00,mfh,24.76
2023-12-16T01:59:00,mfh,23.45
2023-12-16T02:00:00,mfh,23.56
2023-12-16T02:01:00,mfh,23.55
2023-12-16T02:02:00,mfh,24.14
2023-12-16T02:03:00,mfh,24.22
2023-12-16T02:04:00,mfh,23.67
2023-12-16T02:05:00,mfh,23.26
2023-12-16T02:06:00,mfh,22.82
2023-12-16T02:07:00,mfh,22.84
2023-12-16T02:08:00,mfh,24.16
2023-12-16T02:09:00,mfh,23.90
2023-12-16T02:10:00,mfh,22.87
2023-12-16T02:11:00,mfh,22.93
2023-12-16T02:12:00,mfh,23.59
2023-12-16T02:13:00,mfh,24.34
2023-12-16T02:14:00,mfh,23.58
2023-12-16T02:15:00,mfh,23.75
2023-12-16T02:16:00,mfh,23.74
2023-12-16T02:17:00,mfh,23.77
2023-12-16T02:18:00,mfh,22.99
2023-12-16T02:19:00,mfh,23.00
2023-12-16T02:20:00,mfh,22.93
2023-12-16T02:21:00,mfh,22.99
2023-12-16T02:22:00,mfh,23.57
2023-12-16T02:23:00,mfh,23.67
2023-12-16T02:24:00,mfh,23.63
2023-12-16T02:25:00,mfh,23.64
2023-12-16T02:26:00,mfh,23.52
2023-12-16T02:27:00,mfh,23.06
2023-12-16T02:28:00,mfh,23.01
2023-12-16T02:29:00,mfh,22.92
2023-12-16T02:30:00,mfh,22.89
2023-12-16T02:31:00,mfh,23.52
2023-12-16T02:32:00,mfh,23.59
2023-12-16T02:33:00,mfh,23.59
2023-12-16T02:34:00,mfh,23.72
2023-12-16T02:35:00,mfh,23.52
2023-12-16T02:36:00,mfh,23.48
2023-12-16T02:37:00,mfh,23.08
2023-12-16T02:38:00,mfh,23.41
2023-12-16T02:39:00,mfh,22.99
2023-12-16T02:40:00,mfh,24.27
2023-12-16T02:41:00,mfh,23.83
2023-12-16T02:42:00,mfh,23.80
2023-12-16T02:43:00,mfh,23.35
2023-12-16T02:44:00,mfh,23.43
2023-12-16T02:45:00,mfh,24.62
2023-12-16T02:46:00,mfh,22.85
2023-12-16T02:47:00,mfh,22.78
2023-12-16T02:48:00,mfh,22.66
2023-12-16T02:49:00,mfh,22.64
2023-12-16T02:50:00,mfh,23.27
2023-12-16T02:51:00,mfh,23.42
2023-12-16T02:52:00,mfh,23.44
2023-12-16T02:53:00,mfh,23.30
2023-12-16T02:54:00,mfh,23.27
2023-12-16T02:55:00,mfh,23.42
2023-12-16T02:56:00,mfh,22.76
2023-12-16T02:57:00,mfh,22.73
2023-12-16T02:58:00,mfh,22.73
2023-12-16T02:59:00,mfh,23.32
2023-12-16T03:00:00,mfh,25.33
2023-12-16T03:01:00,mfh,25.35
2023-12-16T03:02:00,mfh,25.37
2023-12-16T03:03:00,mfh,25.81
2023-12-16T03:04:00,mfh,25.51
2023-12-16T03:05:00,mfh,24.64
2023-12-16T03:06:00,mfh,24.66
2023-12-16T03:07:00,mfh,24.74
2023-12-16T03:08:00,mfh,25.43
2023-12-16T03:09:00,mfh,25.41
2023-12-16T03:10:00,mfh,25.99
2023-12-16T03:11:00,mfh,25.37
2023-12-16T03:12:00,mfh,25.37
2023-12-16T03:13:00,mfh,25.80
2023-12-16T03:14:00,mfh,25.78
2023-12-16T03:15:00,mfh,25.15
2023-12-16T03:16:00,mfh,25.03
2023-12-16T03:17:00,mfh,25.20
2023-12-16T03:18:00,mfh,24.88
2023-12-16T03:19:00,mfh,25.55
2023-12-16T03:20:00,mfh,25.96
2023-12-16T03:21:00,mfh,26.84
2023-12-16T03:22:00,mfh,26.72
2023-12-16T03:23:00,mfh,26.03
2023-12-16T03:24:00,mfh,26.05
2023-12-16T03:25:00,mfh,25.36
2023-12-16T03:26:00,mfh,25.26
2023-12-16T03:27:00,mfh,26.04
2023-12-16T03:28:00,mfh,26.06
2023-12-16T03:29:00,mfh,26.25
2023-12-16T03:30:00,mfh,26.21
2023-12-16T03:31:00,mfh,26.26
2023-12-16T03:32:00,mfh,26.08
2023-12-16T03:33:00,mfh,26.13
2023-12-16T03:34:00,mfh,25.51
2023-12-16T03:35:00,mfh,25.40
2023-12-16T03:36:00,mfh,25.42
2023-12-16T03:37:00,mfh,24.09
2023-12-16T03:38:00,mfh,23.95
2023-12-16T03:39:00,mfh,24.37
2023-12-16T03:40:00,mfh,24.15
2023-12-16T03:41:00,mfh,24.46
2023-12-16T03:42:00,mfh,24.35
2023-12-16T03:43:00,mfh,23.72
2023-12-16T03:44:00,mfh,23.32
2023-12-16T03:45:00,mfh,23.44
2023-12-16T03:46:00,mfh,24.44
2023-12-16T03:47:00,mfh,24.03
2023-12-16T03:48:00,mfh,24.04
2023-12-16T03:49:00,mfh,24.02
2023-12-16T03:50:00,mfh,24.21
2023-12-16T03:51:00,mfh,23.95
2023-12-16T03:52:00,mfh,23.16
2023-12-16T03:53:00,mfh,23.30
2023-12-16T03:54:00,mfh,23.32
2023-12-16T03:55:00,mfh,22.94
2023-12-16T03:56:00,mfh,23.64
2023-12-16T03:57:00,mfh,23.64
2023-12-16T03:58:00,mfh,23.70
2023-12-16T03:59:00,mfh,23.71
2023-12-16T04:00:00,mfh,23.69
2023-12-16T04:01:00,mfh,24.35
2023-12-16T04:02:00,mfh,23.13
2023-12-16T04:03:00,mfh,23.03
2023-12-16T04:04:00,mfh,23.99
2023-12-16T04:05:00,mfh,23.92
2023-12-16T04:06:00,mfh,23.79
2023-12-16T04:07:00,mfh,23.70
2023-12-16T04:08:00,mfh,24.43
2023-12-16T04:09:00,mfh,23.79
2023-12-16T04:10:00,mfh,23.72
2023-12-16T04:11:00,mfh,23.16
2023-12-16T04:12:00,mfh,23.28
2023-12-16T04:13:00,mfh,23.44
2023-12-16T04:14:00,mfh,24.05
2023-12-16T04:15:00,mfh,24.04
2023-12-16T04:16:00,mfh,24.33
2023-12-16T04:17:00,mfh,32.18
2023-12-16T04:18:00,mfh,32.02
2023-12-16T04:19:00,mfh,32.85
2023-12-16T04:20:00,mfh,31.42
2023-12-16T04:21:00,mfh,31.39
2023-12-16T04:22:00,mfh,31.40
2023-12-16T04:23:00,mfh,32.99
2023-12-16T04:24:00,mfh,32.77
2023-12-16T04:25:00,mfh,32.77
2023-12-16T04:26:00,mfh,33.70
2023-12-16T04:27:00,mfh,32.97
2023-12-16T04:28:00,mfh,33.07
2023-12-16T04:29:00,mfh,39.95
2023-12-16T04:30:00,mfh,39.45
2023-12-16T04:31:00,mfh,39.48
2023-12-16T04:32:00,mfh,35.85
2023-12-16T04:33:00,mfh,35.03
2023-12-16T04:34:00,mfh,35.28
2023-12-16T04:35:00,mfh,35.29
2023-12-16T04:36:00,mfh,35.86
2023-12-16T04:37:00,mfh,36.20
2023-12-16T04:38:00,mfh,39.01
2023-12-16T04:39:00,mfh,39.32
2023-12-16T04:40:00,mfh,39.60
2023-12-16T04:41:00,mfh,41.50
2023-12-16T04:42:00,mfh,41.43
2023-12-16T04:43:00,mfh,41.46
2023-12-16T04:44:00,mfh,41.80
2023-12-16T04:45:00,mfh,41.23
2023-12-16T04:46:00,mfh,41.15
2023-12-16T04:47:00,mfh,41.00
2023-12-16T04:48:00,mfh,41.64
2023-12-16T04:49:00,mfh,40.49
2023-12-16T04:50:00,mfh,40.46
2023-12-16T04:51:00,mfh,40.46
2023-12-16T04:52:00,mfh,41.12
2023-12-16T04:53:00,mfh,41.23
2023-12-16T04:54:00,mfh,41.19
2023-12-16T04:55:00,mfh,41.23
2023-12-16T04:56:00,mfh,41.68
2023-12-16T04:57:00,mfh,40.97
2023-12-16T04:58:00,mfh,40.97
2023-12-16T04:59:00,mfh,40.93
2023-12-16T05:00:00,mfh,41.00
2023-12-16T05:01:00,mfh,60.35
2023-12-16T05:02:00,mfh,63.49
2023-12-16T05:03:00,mfh,63.28
2023-12-16T05:04:00,mfh,63.50
2023-12-16T05:05:00,mfh,60.34
2023-12-16T05:06:00,mfh,55.93
2023-12-16T05:07:00,mfh,54.43
2023-12-16T05:08:00,mfh,61.95
2023-12-16T05:09:00,mfh,61.67
2023-12-16T05:10:00,mfh,62.27
2023-12-16T05:11:00,mfh,62.15
2023-12-16T05:12:00,mfh,61.89
2023-12-16T05:13:00,mfh,61.90
2023-12-16T05:14:00,mfh,62.00
2023-12-16T05:15:00,mfh,62.04
2023-12-16T05:16:00,mfh,59.76
2023-12-16T05:17:00,mfh,59.88
2023-12-16T05:18:00,mfh,59.86
2023-12-16T05:19:00,mfh,60.95
2023-12-16T05:20:00,mfh,60.34
2023-12-16T05:21:00,mfh,60.38
2023-12-16T05:22:00,mfh,60.29
2023-12-16T05:23:00,mfh,61.04
2023-12-16T05:24:00,mfh,67.70
2023-12-16T05:25:00,mfh,67.35
2023-12-16T05:26:00,mfh,67.35
2023-12-16T05:27:00,mfh,66.92
2023-12-16T05:28:00,mfh,66.99
2023-12-16T05:29:00,mfh,67.67
2023-12-16T05:30:00,mfh,67.63
2023-12-16T05:31:00,mfh,67.67
2023-12-16T05:32:00,mfh,63.34
2023-12-16T05:33:00,mfh,63.28
2023-12-16T05:34:00,mfh,62.54
2023-12-16T05:35:00,mfh,66.91
2023-12-16T05:36:00,mfh,66.93
2023-12-16T05:37:00,mfh,67.05
2023-12-16T05:38:00,mfh,67.58
2023-12-16T05:39:00,mfh,63.49
2023-12-16T05:40:00,mfh,60.12
2023-12-16T05:41:00,mfh,68.00
2023-12-16T05:42:00,mfh,67.58
2023-12-16T05:43:00,mfh,67.57
2023-12-16T05:44:00,mfh,66.98
2023-12-16T05:45:00,mfh,66.77
2023-12-16T05:46:00,mfh,66.73
2023-12-16T05:47:00,mfh,66.94
2023-12-16T05:48:00,mfh,67.95
2023-12-16T05:49:00,mfh,67.43
2023-12-16T05:50:00,mfh,67.40
2023-12-16T05:51:00,mfh,67.50
2023-12-16T05:52:00,mfh,68.03
2023-12-16T05:53:00,mfh,66.96
2023-12-16T05:54:00,mfh,66.84
2023-12-16T05:55:00,mfh,66.96
2023-12-16T05:56:00,mfh,67.56
2023-12-16T05:57:00,mfh,67.43
2023-12-16T05:58:00,mfh,67.64
2023-12-16T05:59:00,mfh,67.62
2023-12-16T06:00:00,mfh,67.47
2023-12-16T06:01:00,mfh,67.64
2023-12-16T06:02:00,mfh,66.87
2023-12-16T06:03:00,mfh,66.88
2023-12-16T06:04:00,mfh,67.75
2023-12-16T06:05:00,mfh,67.69
2023-12-16T06:06:00,mfh,68.14
2023-12-16T06:07:00,mfh,68.08
2023-12-16T06:08:00,mfh,67.91
2023-12-16T06:09:00,mfh,68.11
2023-12-16T06:10:00,mfh,67.39
2023-12-16T06:11:00,mfh,67.40
2023-12-16T06:12:00,mfh,67.77
2023-12-16T06:13:00,mfh,67.87
2023-12-16T06:14:00,mfh,67.84
2023-12-16T06:15:00,mfh,68.03
2023-12-16T06:16:00,mfh,69.88
2023-12-16T06:17:00,mfh,68.37
2023-12-16T06:18:00,mfh,68.09
2023-12-16T06:19:00,mfh,68.15
2023-12-16T06:20:00,mfh,67.53
2023-12-16T06:21:00,mfh,67.46
2023-12-16T06:22:00,mfh,68.16
2023-12-16T06:23:00,mfh,68.24
2023-12-16T06:24:00,mfh,68.15
2023-12-16T06:25:00,mfh,69.73
2023-12-16T06:26:00,mfh,69.83
2023-12-16T06:27:00,mfh,69.90
2023-12-16T06:28:00,mfh,69.76
2023-12-16T06:29:00,mfh,69.39
2023-12-16T06:30:00,mfh,68.90
2023-12-16T06:31:00,mfh,67.61
2023-12-16T06:32:00,mfh,68.26
2023-12-16T06:33:00,mfh,68.31
2023-12-16T06:34:00,mfh,68.33
2023-12-16T06:35:00,mfh,68.40
2023-12-16T06:36:00,mfh,66.19
2023-12-16T06:37:00,mfh,66.24
2023-12-16T06:38:00,mfh,65.61
2023-12-16T06:39:00,mfh,65.58
2023-12-16T06:40:00,mfh,65.51
2023-12-16T06:41:00,mfh,65.87
2023-12-16T06:42:00,mfh,66.33
2023-12-16T06:43:00,mfh,66.23
2023-12-16T06:44:00,mfh,67.26
2023-12-16T06:45:00,mfh,66.76
2023-12-16T06:46:00,mfh,66.25
2023-12-16T06:47:00,mfh,65.39
2023-12-16T06:48:00,mfh,65.30
2023-12-16T06:49:00,mfh,65.42
2023-12-16T06:50:00,mfh,66.22
2023-12-16T06:51:00,mfh,66.20
2023-12-16T06:52:00,mfh,66.28
2023-12-16T06:53:00,mfh,66.50
2023-12-16T06:54:00,mfh,70.50
2023-12-16T06:55:00,mfh,70.47
2023-12-16T06:56:00,mfh,69.64
2023-12-16T06:57:00,mfh,69.75
2023-12-16T06:58:00,mfh,67.23
2023-12-16T06:59:00,mfh,66.68
2023-12-16T07:00:00,mfh,66.83
2023-12-16T07:01:00,mfh,67.85
2023-12-16T07:02:00,mfh,67.11
2023-12-16T07:03:00,mfh,66.94
2023-12-16T07:04:00,mfh,66.64
2023-12-16T07:05:00,mfh,65.95
2023-12-16T07:06:00,mfh,66.87
2023-12-16T07:07:00,mfh,65.97
2023-12-16T07:08:00,mfh,64.51
2023-12-16T07:09:00,mfh,64.82
2023-12-16T07:10:00,mfh,64.89
2023-12-16T07:11:00,mfh,60.84
2023-12-16T07:12:00,mfh,60.71
2023-12-16T07:13:00,mfh,60.77
2023-12-16T07:14:00,mfh,60.08
2023-12-16T07:15:00,mfh,59.40
2023-12-16T07:16:00,mfh,59.56
2023-12-16T07:17:00,mfh,59.33
2023-12-16T07:18:00,mfh,60.15
2023-12-16T07:19:00,mfh,60.10
2023-12-16T07:20:00,mfh,59.99
2023-12-16T07:21:00,mfh,60.51
2023-12-16T07:22:00,mfh,59.91
2023-12-16T07:23:00,mfh,59.26
2023-12-16T07:24:00,mfh,59.18
2023-12-16T07:25:00,mfh,59.22
2023-12-16T07:26:00,mfh,60.00
2023-12-16T07:27:00,mfh,60.00
2023-12-16T07:28:00,mfh,59.99
2023-12-16T07:29:00,mfh,60.33
2023-12-16T07:30:00,mfh,60.34
2023-12-16T07:31:00,mfh,60.67
2023-12-16T07:32:00,mfh,59.54
2023-12-16T07:33:00,mfh,59.39
2023-12-16T07:34:00,mfh,59.81
2023-12-16T07:35:00,mfh,59.64
2023-12-16T07:36:00,mfh,60.20
2023-12-16T07:37:00,mfh,60.27
2023-12-16T07:38:00,mfh,56.36
2023-12-16T07:39:00,mfh,56.38
2023-12-16T07:40:00,mfh,56.41
2023-12-16T07:41:00,mfh,55.82
2023-12-16T07:42:00,mfh,56.17
2023-12-16T07:43:00,mfh,56.07
2023-12-16T07:44:00,mfh,52.45
2023-12-16T07:45:00,mfh,52.53
2023-12-16T07:46:00,mfh,57.20
2023-12-16T07:47:00,mfh,53.22
2023-12-16T07:48:00,mfh,57.47
2023-12-16T07:49:00,mfh,57.13
2023-12-16T07:50:00,mfh,56.31
2023-12-16T07:51:00,mfh,56.55
2023-12-16T07:52:00,mfh,59.36
2023-12-16T07:53:00,mfh,58.70
2023-12-16T07:54:00,mfh,59.26
2023-12-16T07:55:00,mfh,59.68
2023-12-16T07:56:00,mfh,59.55
2023-12-16T07:57:00,mfh,59.20
2023-12-16T07:58:00,mfh,59.21
2023-12-16T07:59:00,mfh,58.81
2023-12-16T08:00:00,mfh,59.44
2023-12-16T08:01:00,mfh,58.62
2023-12-16T08:02:00,mfh,54.39
2023-12-16T08:03:00,mfh,54.95
2023-12-16T08:04:00,mfh,55.16
2023-12-16T08:05:00,mfh,51.43
2023-12-16T08:06:00,mfh,51.40
2023-12-16T08:07:00,mfh,51.56
2023-12-16T08:08:00,mfh,51.08
2023-12-16T08:09:00,mfh,47.87
2023-12-16T08:10:00,mfh,47.94
2023-12-16T08:11:00,mfh,43.82
2023-12-16T08:12:00,mfh,44.40
2023-12-16T08:13:00,mfh,44.52
2023-12-16T08:14:00,mfh,45.20
2023-12-16T08:15:00,mfh,44.57
2023-12-16T08:16:00,mfh,44.39
2023-12-16T08:17:00,mfh,43.84
2023-12-16T08:18:00,mfh,43.55
2023-12-16T08:19:00,mfh,44.07
2023-12-16T08:20:00,mfh,44.30
2023-12-16T08:21:00,mfh,44.32
2023-12-16T08:22:00,mfh,44.29
2023-12-16T08:23:00,mfh,44.28
2023-12-16T08:24:00,mfh,44.11
2023-12-16T08:25:00,mfh,44.07
2023-12-16T08:26:00,mfh,43.37
2023-12-16T08:27:00,mfh,43.39
2023-12-16T08:28:00,mfh,43.34
2023-12-16T08:29:00,mfh,43.36
2023-12-16T08:30:00,mfh,44.19
2023-12-16T08:31:00,mfh,52.74
2023-12-16T08:32:00,mfh,52.82
2023-12-16T08:33:00,mfh,53.30
2023-12-16T08:34:00,mfh,52.94
2023-12-16T08:35:00,mfh,52.78
2023-12-16T08:36:00,mfh,53.21
2023-12-16T08:37:00,mfh,53.23
2023-12-16T08:38:00,mfh,52.02
2023-12-16T08:39:00,mfh,52.05
2023-12-16T08:40:00,mfh,52.56
2023-12-16T08:41:00,mfh,52.92
2023-12-16T08:42:00,mfh,52.54
2023-12-16T08:43:00,mfh,53.22
2023-12-16T08:44:00,mfh,52.70
2023-12-16T08:45:00,mfh,53.17
2023-12-16T08:46:00,mfh,52.87
2023-12-16T08:47:00,mfh,52.45
2023-12-16T08:48:00,mfh,52.56
2023-12-16T08:49:00,mfh,52.56
2023-12-16T08:50:00,mfh,52.69
2023-12-16T08:51:00,mfh,52.87
2023-12-16T08:52:00,mfh,52.77
2023-12-16T08:53:00,mfh,52.07
2023-12-16T08:54:00,mfh,52.54
2023-12-16T08:55:00,mfh,53.23
2023-12-16T08:56:00,mfh,52.81
2023-12-16T08:57:00,mfh,61.06
2023-12-16T08:58:00,mfh,60.71
2023-12-16T08:59:00,mfh,60.76
2023-12-16T09:00:00,mfh,61.78
2023-12-16T09:01:00,mfh,60.61
2023-12-16T09:02:00,mfh,60.54
2023-12-16T09:03:00,mfh,60.44
2023-12-16T09:04:00,mfh,57.74
2023-12-16T09:05:00,mfh,58.06
2023-12-16T09:06:00,mfh,57.66
2023-12-16T09:07:00,mfh,58.18
2023-12-16T09:08:00,mfh,58.32
2023-12-16T09:09:00,mfh,58.64
2023-12-16T09:10:00,mfh,58.42
2023-12-16T09:11:00,mfh,58.36
2023-12-16T09:12:00,mfh,58.19
2023-12-16T09:13:00,mfh,58.21
2023-12-16T09:14:00,mfh,58.18
2023-12-16T09:15:00,mfh,58.34
2023-12-16T09:16:00,mfh,60.11
2023-12-16T09:17:00,mfh,60.51
2023-12-16T09:18:00,mfh,60.66
2023-12-16T09:19:00,mfh,59.99
2023-12-16T09:20:00,mfh,60.17
2023-12-16T09:21:00,mfh,60.43
2023-12-16T09:22:00,mfh,60.83
2023-12-16T09:23:00,mfh,60.58
2023-12-16T09:24:00,mfh,60.42
2023-12-16T09:25:00,mfh,60.71
2023-12-16T09:26:00,mfh,60.92
2023-12-16T09:27:00,mfh,60.28
2023-12-16T09:28:00,mfh,60.21
2023-12-16T09:29:00,mfh,60.96
2023-12-16T09:30:00,mfh,60.33
2023-12-16T09:31:00,mfh,60.36
2023-12-16T09:32:00,mfh,60.03
2023-12-16T09:33:00,mfh,60.00
2023-12-16T09:34:00,mfh,60.04
2023-12-16T09:35:00,mfh,60.20
2023-12-16T09:36:00,mfh,60.10
2023-12-16T09:37:00,mfh,59.82
2023-12-16T09:38:00,mfh,60.25
2023-12-16T09:39:00,mfh,60.90
2023-12-16T09:40:00,mfh,60.70
2023-12-16T09:41:00,mfh,60.73
2023-12-16T09:42:00,mfh,60.81
2023-12-16T09:43:00,mfh,60.79
2023-12-16T09:44:00,mfh,61.53
2023-12-16T09:45:00,mfh,61.38
2023-12-16T09:46:00,mfh,61.72
2023-12-16T09:47:00,mfh,61.33
2023-12-16T09:48:00,mfh,59.88
2023-12-16T09:49:00,mfh,59.86
2023-12-16T09:50:00,mfh,60.48
2023-12-16T09:51:00,mfh,60.30
2023-12-16T09:52:00,mfh,60.98
2023-12-16T09:53:00,mfh,60.33
2023-12-16T09:54:00,mfh,60.27
2023-12-16T09:55:00,mfh,60.26
2023-12-16T09:56:00,mfh,60.28
2023-12-16T09:57:00,mfh,60.49
2023-12-16T09:58:00,mfh,59.67
2023-12-16T09:59:00,mfh,59.99
2023-12-16T10:00:00,mfh,58.92
2023-12-16T10:01:00,mfh,58.49
2023-12-16T10:02:00,mfh,59.36
2023-12-16T10:03:00,mfh,58.83
2023-12-16T10:04:00,mfh,58.88
2023-12-16T10:05:00,mfh,59.16
2023-12-16T10:06:00,mfh,70.32
2023-12-16T10:07:00,mfh,70.40
2023-12-16T10:08:00,mfh,74.85
2023-12-16T10:09:00,mfh,74.62
2023-12-16T10:10:00,mfh,74.67
2023-12-16T10:11:00,mfh,74.71
2023-12-16T10:12:00,mfh,74.37
2023-12-16T10:13:00,mfh,74.46
2023-12-16T10:14:00,mfh,74.40
2023-12-16T10:15:00,mfh,74.65
2023-12-16T10:16:00,mfh,74.45
2023-12-16T10:17:00,mfh,74.41
2023-12-16T10:18:00,mfh,75.17
2023-12-16T10:19:00,mfh,74.31
2023-12-16T10:20:00,mfh,74.33
2023-12-16T10:21:00,mfh,74.02
2023-12-16T10:22:00,mfh,73.74
2023-12-16T10:23:00,mfh,73.67
2023-12-16T10:24:00,mfh,69.44
2023-12-16T10:25:00,mfh,73.54
2023-12-16T10:26:00,mfh,73.54
2023-12-16T10:27:00,mfh,73.50
2023-12-16T10:28:00,mfh,73.94
2023-12-16T10:29:00,mfh,73.14
2023-12-16T10:30:00,mfh,73.17
2023-12-16T10:31:00,mfh,73.50
2023-12-16T10:32:00,mfh,73.46
2023-12-16T10:33:00,mfh,73.26
2023-12-16T10:34:00,mfh,75.14
2023-12-16T10:35:00,mfh,75.20
2023-12-16T10:36:00,mfh,75.21
2023-12-16T10:37:00,mfh,75.74
2023-12-16T10:38:00,mfh,75.00
2023-12-16T10:39:00,mfh,75.88
2023-12-16T10:40:00,mfh,72.57
2023-12-16T10:41:00,mfh,71.32
2023-12-16T10:42:00,mfh,71.54
2023-12-16T10:43:00,mfh,72.09
2023-12-16T10:44:00,mfh,70.51
2023-12-16T10:45:00,mfh,71.26
2023-12-16T10:46:00,mfh,71.65
2023-12-16T10:47:00,mfh,72.11
2023-12-16T10:48:00,mfh,71.95
2023-12-16T10:49:00,mfh,71.95
2023-12-16T10:50:00,mfh,70.95
2023-12-16T10:51:00,mfh,71.57
2023-12-16T10:52:00,mfh,71.22
2023-12-16T10:53:00,mfh,71.26
2023-12-16T10:54:00,mfh,71.17
2023-12-16T10:55:00,mfh,71.19
2023-12-16T10:56:00,mfh,70.79
2023-12-16T10:57:00,mfh,70.57
2023-12-16T10:58:00,mfh,71.73
2023-12-16T10:59:00,mfh,71.38
2023-12-16T11:00:00,mfh,71.71
2023-12-16T11:01:00,mfh,71.67
2023-12-16T11:02:00,mfh,71.75
2023-12-16T11:03:00,mfh,71.34
2023-12-16T11:04:00,mfh,70.13
2023-12-16T11:05:00,mfh,69.88
2023-12-16T11:06:00,mfh,70.20
2023-12-16T11:07:00,mfh,69.84
2023-12-16T11:08:00,mfh,69.30
2023-12-16T11:09:00,mfh,73.72
2023-12-16T11:10:00,mfh,74.20
2023-12-16T11:11:00,mfh,73.81
2023-12-16T11:12:00,mfh,73.31
2023-12-16T11:13:00,mfh,73.03
2023-12-16T11:14:00,mfh,73.56
2023-12-16T11:15:00,mfh,73.79
2023-12-16T11:16:00,mfh,73.69
2023-12-16T11:17:00,mfh,74.46
2023-12-16T11:18:00,mfh,75.26
2023-12-16T11:19:00,mfh,73.79
2023-12-16T11:20:00,mfh,73.68
2023-12-16T11:21:00,mfh,73.74
2023-12-16T11:22:00,mfh,73.53
2023-12-16T11:23:00,mfh,73.62
2023-12-16T11:24:00,mfh,73.38
2023-12-16T11:25:00,mfh,72.64
2023-12-16T11:26:00,mfh,73.38
2023-12-16T11:27:00,mfh,73.17
2023-12-16T11:28:00,mfh,73.20
2023-12-16T11:29:00,mfh,73.23
2023-12-16T11:30:00,mfh,72.84
2023-12-16T11:31:00,mfh,72.85
2023-12-16T11:32:00,mfh,72.19
2023-12-16T11:33:00,mfh,71.89
2023-12-16T11:34:00,mfh,72.08
2023-12-16T11:35:00,mfh,71.96
2023-12-16T11:36:00,mfh,72.76
2023-12-16T11:37:00,mfh,73.10
2023-12-16T11:38:00,mfh,73.06
2023-12-16T11:39:00,mfh,72.91
2023-12-16T11:40:00,mfh,72.32
2023-12-16T11:41:00,mfh,72.28
2023-12-16T11:42:00,mfh,72.94
2023-12-16T11:43:00,mfh,72.91
2023-12-16T11:44:00,mfh,72.96
2023-12-16T11:45:00,mfh,72.89
2023-12-16T11:46:00,mfh,73.29
2023-12-16T11:47:00,mfh,73.39
2023-12-16T11:48:00,mfh,73.77
2023-12-16T11:49:00,mfh,73.95
2023-12-16T11:50:00,mfh,74.00
2023-12-16T11:51:00,mfh,74.33
2023-12-16T11:52:00,mfh,73.63
2023-12-16T11:53:00,mfh,69.26
2023-12-16T11:54:00,mfh,69.35
2023-12-16T11:55:00,mfh,70.20
2023-12-16T11:56:00,mfh,69.99
2023-12-16T11:57:00,mfh,69.87
2023-12-16T11:58:00,mfh,69.93
2023-12-16T11:59:00,mfh,71.01
2023-12-16T12:00:00,mfh,75.06
2023-12-16T12:01:00,mfh,75.11
2023-12-16T12:02:00,mfh,75.42
2023-12-16T12:03:00,mfh,75.39
2023-12-16T12:04:00,mfh,73.24
2023-12-16T12:05:00,mfh,73.36
2023-12-16T12:06:00,mfh,73.42
2023-12-16T12:07:00,mfh,73.68
2023-12-16T12:08:00,mfh,73.61
2023-12-16T12:09:00,mfh,74.78
2023-12-16T12:10:00,mfh,74.36
2023-12-16T12:11:00,mfh,75.26
2023-12-16T12:12:00,mfh,75.29
2023-12-16T12:13:00,mfh,75.26
2023-12-16T12:14:00,mfh,75.24
2023-12-16T12:15:00,mfh,74.57
2023-12-16T12:16:00,mfh,75.07
2023-12-16T12:17:00,mfh,74.68
2023-12-16T12:18:00,mfh,74.24
2023-12-16T12:19:00,mfh,74.40
2023-12-16T12:20:00,mfh,74.69
2023-12-16T12:21:00,mfh,74.58
2023-12-16T12:22:00,mfh,74.48
2023-12-16T12:23:00,mfh,77.38
2023-12-16T12:24:00,mfh,77.37
2023-12-16T12:25:00,mfh,75.07
2023-12-16T12:26:00,mfh,75.79
2023-12-16T12:27:00,mfh,75.81
2023-12-16T12:28:00,mfh,75.90
2023-12-16T12:29:00,mfh,75.92
2023-12-16T12:30:00,mfh,76.06
2023-12-16T12:31:00,mfh,75.50
2023-12-16T12:32:00,mfh,75.14
2023-12-16T12:33:00,mfh,74.75
2023-12-16T12:34:00,mfh,74.67
2023-12-16T12:35:00,mfh,74.39
2023-12-16T12:36:00,mfh,73.69
2023-12-16T12:37:00,mfh,74.14
2023-12-16T12:38:00,mfh,74.29
2023-12-16T12:39:00,mfh,74.74
2023-12-16T12:40:00,mfh,75.50
2023-12-16T12:41:00,mfh,75.24
2023-12-16T12:42:00,mfh,74.72
2023-12-16T12:43:00,mfh,74.52
2023-12-16T12:44:00,mfh,74.60
2023-12-16T12:45:00,mfh,74.57
2023-12-16T12:46:00,mfh,75.05
2023-12-16T12:47:00,mfh,74.63
2023-12-16T12:48:00,mfh,74.39
2023-12-16T12:49:00,mfh,74.33
2023-12-16T12:50:00,mfh,74.38
2023-12-16T12:51:00,mfh,74.93
2023-12-16T12:52:00,mfh,73.87
2023-12-16T12:53:00,mfh,75.19
2023-12-16T12:54:00,mfh,74.97
2023-12-16T12:55:00,mfh,74.53
2023-12-16T12:56:00,mfh,74.67
2023-12-16T12:57:00,mfh,74.39
2023-12-16T12:58:00,mfh,74.97
2023-12-16T12:59:00,mfh,74.67
2023-12-16T13:00:00,mfh,75.06
2023-12-16T13:01:00,mfh,76.76
2023-12-16T13:02:00,mfh,75.10
2023-12-16T13:03:00,mfh,74.64
2023-12-16T13:04:00,mfh,73.81
2023-12-16T13:05:00,mfh,73.85
2023-12-16T13:06:00,mfh,73.74
2023-12-16T13:07:00,mfh,74.66
2023-12-16T13:08:00,mfh,74.77
2023-12-16T13:09:00,mfh,76.05
2023-12-16T13:10:00,mfh,75.46
2023-12-16T13:11:00,mfh,75.40
2023-12-16T13:12:00,mfh,75.37
2023-12-16T13:13:00,mfh,75.28
2023-12-16T13:14:00,mfh,75.51
2023-12-16T13:15:00,mfh,75.42
2023-12-16T13:16:00,mfh,75.11
2023-12-16T13:17:00,mfh,74.93
2023-12-16T13:18:00,mfh,75.42